Time,TemperatureF,DewpointF,PressureIn,WindDirection,WindDirectionDegrees,WindSpeedMPH,WindSpeedGustMPH,Humidity,HourlyPrecipIn,Conditions,Clouds,dailyrainin,SoftwareType,DateUTC
2013-01-23 00:02:00,25.5,15.3,30.17,WNW,292,0.0,0.0,65,0.00,,,0.00,WUHU21623XXSP,2013-01-23 08:02:00,
2013-01-23 00:07:00,25.5,15.3,30.17,NNW,337,0.0,0.0,65,0.00,,,0.00,WUHU21623XXSP,2013-01-23 08:07:00,
2013-01-23 00:12:00,25.5,15.5,30.17,SSE,157,0.0,0.0,66,0.00,,,0.00,WUHU21623XXSP,2013-01-23 08:12:00,
2013-01-23 00:28:00,25.3,15.5,30.16,NW,315,0.0,0.0,66,0.00,,,0.00,WUHU21623XXSP,2013-01-23 08:28:00,
2013-01-23 00:33:00,25.3,15.5,30.16,NW,315,0.0,0.0,66,0.00,,,0.00,WUHU21623XXSP,2013-01-23 08:33:00,
2013-01-23 00:43:00,25.2,15.3,30.16,NW,315,0.0,0.0,66,0.00,,,0.00,WUHU21623XXSP,2013-01-23 08:43:00,
2013-01-23 00:48:00,25.2,15.3,30.15,SSW,202,0.0,0.0,66,0.00,,,0.00,WUHU21623XXSP,2013-01-23 08:48:00,
2013-01-23 00:54:00,25.2,15.7,30.15,SW,225,0.0,0.0,67,0.00,,,0.00,WUHU21623XXSP,2013-01-23 08:54:00,
2013-01-23 00:59:00,25.2,15.7,30.15,SW,225,0.0,0.0,67,0.00,,,0.00,WUHU21623XXSP,2013-01-23 08:59:00,
2013-01-23 01:04:00,25.2,15.7,30.15,NE,45,0.0,0.0,67,0.00,,,0.00,WUHU21623XXSP,2013-01-23 09:04:00,
2013-01-23 01:09:00,25.3,15.7,30.15,NE,45,0.0,0.0,67,0.00,,,0.00,WUHU21623XXSP,2013-01-23 09:09:00,
2013-01-23 01:14:00,25.2,15.7,30.15,SW,225,0.0,0.0,67,0.00,,,0.00,WUHU21623XXSP,2013-01-23 09:14:00,
2013-01-23 01:28:00,25.3,16.2,30.15,NNW,337,0.0,0.0,68,0.00,,,0.00,WUHU21623XXSP,2013-01-23 09:28:00,
2013-01-23 01:34:00,25.3,16.2,30.15,SW,225,0.0,0.0,68,0.00,,,0.00,WUHU21623XXSP,2013-01-23 09:34:00,
2013-01-23 01:39:00,25.3,16.2,30.15,SW,225,0.0,0.0,68,0.00,,,0.00,WUHU21623XXSP,2013-01-23 09:39:00,
2013-01-23 01:56:00,25.3,16.2,30.15,SSE,157,0.0,0.0,68,0.00,,,0.00,WUHU21623XXSP,2013-01-23 09:56:00,
2013-01-23 02:01:00,25.3,16.2,30.15,SSW,202,0.0,0.0,68,0.00,,,0.00,WUHU21623XXSP,2013-01-23 10:01:00,
2013-01-23 02:06:00,25.3,16.2,30.15,NW,315,0.0,0.0,68,0.00,,,0.00,WUHU21623XXSP,2013-01-23 10:06:00,
2013-01-23 02:12:00,25.3,16.2,30.14,NW,315,0.0,0.0,68,0.00,,,0.00,WUHU21623XXSP,2013-01-23 10:12:00,
2013-01-23 02:17:00,25.3,16.2,30.16,SE,135,0.0,0.0,68,0.00,,,0.00,WUHU21623XXSP,2013-01-23 10:17:00,
2013-01-23 02:31:00,25.3,16.2,30.15,SSE,157,0.0,0.0,68,0.00,,,0.00,WUHU21623XXSP,2013-01-23 10:31:00,
2013-01-23 02:43:00,25.3,16.2,30.15,South,180,0.0,0.0,68,0.00,,,0.00,WUHU21623XXSP,2013-01-23 10:43:00,
2013-01-23 02:48:00,25.3,16.2,30.15,East,90,0.0,0.0,68,0.00,,,0.00,WUHU21623XXSP,2013-01-23 10:48:00,
2013-01-23 02:58:00,25.3,16.5,30.14,WNW,292,0.0,0.0,69,0.00,,,0.00,WUHU21623XXSP,2013-01-23 10:58:00,
2013-01-23 03:03:00,25.3,16.5,30.14,WNW,292,0.0,0.0,69,0.00,,,0.00,WUHU21623XXSP,2013-01-23 11:03:00,
2013-01-23 03:08:00,25.3,16.5,30.15,SSE,157,0.0,0.0,69,0.00,,,0.00,WUHU21623XXSP,2013-01-23 11:08:00,
2013-01-23 03:13:00,25.2,16.3,30.14,ENE,67,0.0,0.0,69,0.00,,,0.00,WUHU21623XXSP,2013-01-23 11:13:00,
2013-01-23 03:27:00,25.2,16.3,30.14,SSE,157,0.0,0.0,69,0.00,,,0.00,WUHU21623XXSP,2013-01-23 11:27:00,
2013-01-23 03:32:00,25.0,16.2,30.14,NE,45,0.0,0.0,69,0.00,,,0.00,WUHU21623XXSP,2013-01-23 11:32:00,
2013-01-23 03:39:00,25.0,16.2,30.14,SE,135,0.0,0.0,69,0.00,,,0.00,WUHU21623XXSP,2013-01-23 11:39:00,
2013-01-23 03:44:00,25.0,16.2,30.13,SSE,157,0.0,0.0,69,0.00,,,0.00,WUHU21623XXSP,2013-01-23 11:44:00,
2013-01-23 03:49:00,25.0,16.5,30.13,SSE,157,0.0,0.0,70,0.00,,,0.00,WUHU21623XXSP,2013-01-23 11:49:00,
2013-01-23 03:54:00,25.0,16.5,30.13,SSW,202,0.0,0.0,70,0.00,,,0.00,WUHU21623XXSP,2013-01-23 11:54:00,
2013-01-23 03:59:00,25.0,16.5,30.13,SSW,202,0.0,0.0,70,0.00,,,0.00,WUHU21623XXSP,2013-01-23 11:59:00,
2013-01-23 04:04:00,25.0,16.5,30.13,SSW,202,0.0,0.0,70,0.00,,,0.00,WUHU21623XXSP,2013-01-23 12:04:00,
2013-01-23 04:09:00,25.0,16.5,30.13,ESE,112,0.0,0.0,70,0.00,,,0.00,WUHU21623XXSP,2013-01-23 12:09:00,
2013-01-23 04:17:00,25.0,16.5,30.13,NNE,22,0.0,0.0,70,0.00,,,0.00,WUHU21623XXSP,2013-01-23 12:17:00,
2013-01-23 04:23:00,25.0,16.5,30.13,East,90,0.0,0.0,70,0.00,,,0.00,WUHU21623XXSP,2013-01-23 12:23:00,
2013-01-23 04:32:00,25.0,16.5,30.12,ESE,112,0.0,0.0,70,0.00,,,0.00,WUHU21623XXSP,2013-01-23 12:32:00,
2013-01-23 04:43:00,25.0,16.5,30.12,South,180,0.0,0.0,70,0.00,,,0.00,WUHU21623XXSP,2013-01-23 12:43:00,
2013-01-23 05:08:00,25.0,16.8,30.13,SE,135,0.0,0.0,71,0.00,,,0.00,WUHU21623XXSP,2013-01-23 13:08:00,
2013-01-23 05:15:00,25.0,16.8,30.12,NNW,337,0.0,0.0,71,0.00,,,0.00,WUHU21623XXSP,2013-01-23 13:15:00,
2013-01-23 05:21:00,25.0,16.8,30.13,NW,315,0.0,0.0,71,0.00,,,0.00,WUHU21623XXSP,2013-01-23 13:21:00,
2013-01-23 05:26:00,25.0,16.8,30.14,East,90,0.0,0.0,71,0.00,,,0.00,WUHU21623XXSP,2013-01-23 13:26:00,
2013-01-23 05:41:00,25.0,16.8,30.12,East,90,0.0,0.0,71,0.00,,,0.00,WUHU21623XXSP,2013-01-23 13:41:00,
2013-01-23 05:51:00,24.6,16.5,30.13,SSE,157,0.0,0.0,72,0.00,,,0.00,WUHU21623XXSP,2013-01-23 13:51:00,
2013-01-23 05:56:00,24.6,16.8,30.13,SE,135,0.0,0.0,72,0.00,,,0.00,WUHU21623XXSP,2013-01-23 13:56:00,
2013-01-23 06:01:00,24.6,16.8,30.13,SSE,157,0.0,0.0,72,0.00,,,0.00,WUHU21623XXSP,2013-01-23 14:01:00,
2013-01-23 06:06:00,24.6,16.8,30.13,SSW,202,0.0,0.0,72,0.00,,,0.00,WUHU21623XXSP,2013-01-23 14:06:00,
2013-01-23 06:17:00,24.4,16.6,30.14,WNW,292,0.0,0.0,72,0.00,,,0.00,WUHU21623XXSP,2013-01-23 14:17:00,
2013-01-23 06:26:00,24.4,16.3,30.14,ENE,67,0.0,0.0,71,0.00,,,0.00,WUHU21623XXSP,2013-01-23 14:26:00,
2013-01-23 07:02:00,23.5,15.8,30.14,East,90,0.0,0.0,72,0.00,,,0.00,WUHU21623XXSP,2013-01-23 15:02:00,
2013-01-23 07:09:00,23.5,15.8,30.14,South,180,0.0,0.0,72,0.00,,,0.00,WUHU21623XXSP,2013-01-23 15:09:00,
2013-01-23 07:17:00,23.5,15.8,30.13,South,180,0.0,0.0,72,0.00,,,0.00,WUHU21623XXSP,2013-01-23 15:17:00,
2013-01-23 07:30:00,23.2,15.5,30.13,West,270,0.0,0.0,72,0.00,,,0.00,WUHU21623XXSP,2013-01-23 15:30:00,
2013-01-23 07:36:00,23.2,15.5,30.14,ESE,112,0.0,0.0,72,0.00,,,0.00,WUHU21623XXSP,2013-01-23 15:36:00,
2013-01-23 07:43:00,23.2,15.8,30.13,WNW,292,0.0,0.0,73,0.00,,,0.00,WUHU21623XXSP,2013-01-23 15:43:00,
2013-01-23 07:49:00,23.4,16.0,30.13,WNW,292,0.0,0.0,73,0.00,,,0.00,WUHU21623XXSP,2013-01-23 15:49:00,
2013-01-23 07:55:00,23.4,16.0,30.13,SSE,157,0.0,0.0,73,0.00,,,0.00,WUHU21623XXSP,2013-01-23 15:55:00,
2013-01-23 08:00:00,23.5,16.1,30.13,NE,45,0.0,0.0,73,0.00,,,0.00,WUHU21623XXSP,2013-01-23 16:00:00,
2013-01-23 08:05:00,23.5,16.1,30.14,ENE,67,0.0,0.0,73,0.00,,,0.00,WUHU21623XXSP,2013-01-23 16:05:00,
2013-01-23 08:10:00,23.5,16.1,30.14,ENE,67,0.0,0.0,73,0.00,,,0.00,WUHU21623XXSP,2013-01-23 16:10:00,
2013-01-23 08:16:00,23.7,16.3,30.14,SE,135,0.0,0.0,73,0.00,,,0.00,WUHU21623XXSP,2013-01-23 16:16:00,
2013-01-23 08:21:00,24.1,16.6,30.14,NE,45,0.0,0.0,74,0.00,,,0.00,WUHU21623XXSP,2013-01-23 16:21:00,
2013-01-23 08:26:00,24.1,17.0,30.14,ENE,67,0.0,0.0,74,0.00,,,0.00,WUHU21623XXSP,2013-01-23 16:26:00,
2013-01-23 08:31:00,24.4,17.3,30.14,NE,45,0.0,0.0,74,0.00,,,0.00,WUHU21623XXSP,2013-01-23 16:31:00,
2013-01-23 08:36:00,24.6,17.5,30.14,ESE,112,0.0,0.0,74,0.00,,,0.00,WUHU21623XXSP,2013-01-23 16:36:00,
2013-01-23 08:45:00,25.0,17.8,30.13,WNW,292,0.0,0.0,74,0.00,,,0.00,WUHU21623XXSP,2013-01-23 16:45:00,
2013-01-23 08:50:00,25.2,18.0,30.13,WSW,247,0.0,0.0,74,0.00,,,0.00,WUHU21623XXSP,2013-01-23 16:50:00,
2013-01-23 08:58:00,25.5,18.3,30.14,West,270,0.0,0.0,74,0.00,,,0.00,WUHU21623XXSP,2013-01-23 16:58:00,
2013-01-23 09:11:00,26.6,19.7,30.15,WNW,292,0.0,0.0,75,0.00,,,0.00,WUHU21623XXSP,2013-01-23 17:11:00,
2013-01-23 09:24:00,28.0,21.4,30.15,WNW,292,0.0,0.0,77,0.00,,,0.00,WUHU21623XXSP,2013-01-23 17:24:00,
2013-01-23 09:29:00,28.6,22.2,30.15,WNW,292,0.0,0.0,77,0.00,,,0.00,WUHU21623XXSP,2013-01-23 17:29:00,
2013-01-23 09:41:00,31.3,24.9,30.16,NNE,22,0.0,0.0,77,0.00,,,0.00,WUHU21623XXSP,2013-01-23 17:41:00,
2013-01-23 09:46:00,32.4,25.6,30.15,NNE,22,0.0,0.0,77,0.00,,,0.00,WUHU21623XXSP,2013-01-23 17:46:00,
2013-01-23 09:51:00,33.1,26.3,30.15,NNE,22,0.0,0.0,76,0.00,,,0.00,WUHU21623XXSP,2013-01-23 17:51:00,
2013-01-23 09:56:00,33.6,26.8,30.15,NW,315,0.0,0.0,76,0.00,,,0.00,WUHU21623XXSP,2013-01-23 17:56:00,
2013-01-23 10:10:00,34.9,27.4,30.15,WNW,292,0.0,0.0,74,0.00,,,0.00,WUHU21623XXSP,2013-01-23 18:10:00,
2013-01-23 10:15:00,35.2,27.7,30.15,West,270,0.0,0.0,74,0.00,,,0.00,WUHU21623XXSP,2013-01-23 18:15:00,
2013-01-23 10:23:00,35.8,27.6,30.15,NW,315,0.0,0.0,72,0.00,,,0.00,WUHU21623XXSP,2013-01-23 18:23:00,
2013-01-23 10:28:00,36.1,28.0,30.15,WNW,292,0.0,0.0,72,0.00,,,0.00,WUHU21623XXSP,2013-01-23 18:28:00,
2013-01-23 10:35:00,36.5,28.0,30.14,WSW,247,0.0,0.0,71,0.00,,,0.00,WUHU21623XXSP,2013-01-23 18:35:00,
2013-01-23 10:40:00,36.9,28.0,30.15,WSW,247,0.0,0.0,70,0.00,,,0.00,WUHU21623XXSP,2013-01-23 18:40:00,
2013-01-23 10:49:00,37.2,28.4,30.15,WNW,292,0.0,0.0,70,0.00,,,0.00,WUHU21623XXSP,2013-01-23 18:49:00,
2013-01-23 10:58:00,37.8,28.5,30.14,ENE,67,0.0,0.0,69,0.00,,,0.00,WUHU21623XXSP,2013-01-23 18:58:00,
2013-01-23 11:03:00,37.9,28.7,30.14,SSW,202,0.0,0.0,69,0.00,,,0.00,WUHU21623XXSP,2013-01-23 19:03:00,
2013-01-23 11:12:00,38.5,28.8,30.14,South,180,0.0,0.0,68,0.00,,,0.00,WUHU21623XXSP,2013-01-23 19:12:00,
2013-01-23 11:17:00,38.7,28.8,30.14,WNW,292,0.0,0.0,68,0.00,,,0.00,WUHU21623XXSP,2013-01-23 19:17:00,
2013-01-23 11:22:00,38.8,29.1,30.14,SSW,202,0.0,0.0,68,0.00,,,0.00,WUHU21623XXSP,2013-01-23 19:22:00,
2013-01-23 11:28:00,39.4,29.2,30.14,South,180,0.0,0.0,67,0.00,,,0.00,WUHU21623XXSP,2013-01-23 19:28:00,
2013-01-23 11:40:00,39.6,28.7,30.13,West,270,0.0,0.0,65,0.00,,,0.00,WUHU21623XXSP,2013-01-23 19:40:00,
2013-01-23 11:45:00,39.7,28.9,30.13,NNE,22,0.0,0.0,65,0.00,,,0.00,WUHU21623XXSP,2013-01-23 19:45:00,
2013-01-23 11:51:00,39.9,29.0,30.13,West,270,0.0,0.0,65,0.00,,,0.00,WUHU21623XXSP,2013-01-23 19:51:00,
2013-01-23 11:58:00,40.8,30.3,30.12,SW,225,0.0,0.0,66,0.00,,,0.00,WUHU21623XXSP,2013-01-23 19:58:00,
2013-01-23 12:03:00,41.5,31.0,30.12,WNW,292,0.0,0.0,66,0.00,,,0.00,WUHU21623XXSP,2013-01-23 20:03:00,
2013-01-23 12:10:00,43.2,32.2,30.12,West,270,0.0,0.0,65,0.00,,,0.00,WUHU21623XXSP,2013-01-23 20:10:00,
2013-01-23 12:15:00,43.9,32.5,30.12,North,0,0.0,0.0,64,0.00,,,0.00,WUHU21623XXSP,2013-01-23 20:15:00,
2013-01-23 12:23:00,44.6,32.8,30.11,SE,135,0.0,0.0,63,0.00,,,0.00,WUHU21623XXSP,2013-01-23 20:23:00,
2013-01-23 12:30:00,45.0,32.3,30.11,East,90,0.0,0.0,61,0.00,,,0.00,WUHU21623XXSP,2013-01-23 20:30:00,
2013-01-23 12:38:00,45.7,33.0,30.11,WNW,292,0.0,0.0,61,0.00,,,0.00,WUHU21623XXSP,2013-01-23 20:38:00,
2013-01-23 12:49:00,46.6,33.4,30.10,WSW,247,0.0,0.0,60,0.00,,,0.00,WUHU21623XXSP,2013-01-23 20:49:00,
2013-01-23 12:58:00,47.1,33.1,30.10,SW,225,0.0,0.0,58,0.00,,,0.00,WUHU21623XXSP,2013-01-23 20:58:00,
2013-01-23 13:03:00,47.5,33.4,30.09,WNW,292,4.0,4.0,58,0.00,,,0.00,WUHU21623XXSP,2013-01-23 21:03:00,
2013-01-23 13:08:00,47.8,33.8,30.09,SSW,202,0.0,4.0,58,0.00,,,0.00,WUHU21623XXSP,2013-01-23 21:08:00,
2013-01-23 13:15:00,49.1,35.0,30.08,WNW,292,0.0,0.0,58,0.00,,,0.00,WUHU21623XXSP,2013-01-23 21:15:00,
2013-01-23 13:21:00,50.2,35.0,30.08,East,90,2.5,2.5,56,0.00,,,0.00,WUHU21623XXSP,2013-01-23 21:21:00,
2013-01-23 13:30:00,50.5,34.5,30.08,SSW,202,0.0,2.5,53,0.00,,,0.00,WUHU21623XXSP,2013-01-23 21:30:00,
2013-01-23 13:36:00,50.9,34.3,30.08,West,270,0.0,0.0,53,0.00,,,0.00,WUHU21623XXSP,2013-01-23 21:36:00,
2013-01-23 13:45:00,51.4,34.4,30.08,South,180,0.0,0.0,52,0.00,,,0.00,WUHU21623XXSP,2013-01-23 21:45:00,
2013-01-23 13:51:00,52.0,34.9,30.08,SW,225,0.0,0.0,52,0.00,,,0.00,WUHU21623XXSP,2013-01-23 21:51:00,
2013-01-23 13:56:00,52.3,35.2,30.08,South,180,0.0,0.0,52,0.00,,,0.00,WUHU21623XXSP,2013-01-23 21:56:00,
2013-01-23 14:08:00,53.4,34.7,30.07,WNW,292,0.0,0.0,49,0.00,,,0.00,WUHU21623XXSP,2013-01-23 22:08:00,
2013-01-23 14:17:00,53.8,34.5,30.08,South,180,0.0,0.0,48,0.00,,,0.00,WUHU21623XXSP,2013-01-23 22:17:00,
2013-01-23 14:22:00,53.8,34.5,30.07,SW,225,0.0,0.0,48,0.00,,,0.00,WUHU21623XXSP,2013-01-23 22:22:00,
2013-01-23 14:34:00,53.8,33.4,30.07,SSE,157,1.6,1.6,46,0.00,,,0.00,WUHU21623XXSP,2013-01-23 22:34:00,
2013-01-23 14:39:00,53.8,33.4,30.06,SW,225,0.0,1.6,46,0.00,,,0.00,WUHU21623XXSP,2013-01-23 22:39:00,
2013-01-23 14:47:00,53.6,32.1,30.07,SSE,157,0.0,3.4,44,0.00,,,0.00,WUHU21623XXSP,2013-01-23 22:47:00,
2013-01-23 14:57:00,53.4,31.4,30.06,South,180,2.9,2.9,43,0.00,,,0.00,WUHU21623XXSP,2013-01-23 22:57:00,
2013-01-23 15:12:00,53.8,30.6,30.08,SE,135,3.1,3.1,41,0.00,,,0.00,WUHU21623XXSP,2013-01-23 23:12:00,
2013-01-23 15:17:00,53.8,30.6,30.08,SE,135,3.1,3.1,41,0.00,,,0.00,WUHU21623XXSP,2013-01-23 23:17:00,
2013-01-23 15:23:00,54.3,29.8,30.08,ESE,112,2.2,3.1,39,0.00,,,0.00,WUHU21623XXSP,2013-01-23 23:23:00,
2013-01-23 15:28:00,54.3,29.6,30.08,East,90,0.9,2.2,39,0.00,,,0.00,WUHU21623XXSP,2013-01-23 23:28:00,
2013-01-23 15:34:00,54.1,28.9,30.07,ESE,112,0.0,0.9,38,0.00,,,0.00,WUHU21623XXSP,2013-01-23 23:34:00,
2013-01-23 15:42:00,53.6,28.5,30.07,SE,135,2.9,2.9,38,0.00,,,0.00,WUHU21623XXSP,2013-01-23 23:42:00,
2013-01-23 15:47:00,53.4,27.6,30.07,ESE,112,2.2,2.9,37,0.00,,,0.00,WUHU21623XXSP,2013-01-23 23:47:00,
2013-01-23 15:59:00,52.5,26.3,30.07,ESE,112,5.8,5.8,36,0.00,,,0.00,WUHU21623XXSP,2013-01-23 23:59:00,
2013-01-23 16:04:00,52.5,26.1,30.08,ESE,112,5.8,5.8,36,0.00,,,0.00,WUHU21623XXSP,2013-01-24 00:04:00,
2013-01-23 16:14:00,52.2,25.8,30.07,SSE,157,2.5,2.5,36,0.00,,,0.00,WUHU21623XXSP,2013-01-24 00:14:00,
2013-01-23 16:19:00,52.0,25.6,30.07,SE,135,5.1,5.1,36,0.00,,,0.00,WUHU21623XXSP,2013-01-24 00:19:00,
2013-01-23 16:29:00,51.4,24.5,30.07,ESE,112,1.8,1.8,35,0.00,,,0.00,WUHU21623XXSP,2013-01-24 00:29:00,
2013-01-23 16:38:00,51.1,24.2,30.07,SE,135,3.8,3.8,35,0.00,,,0.00,WUHU21623XXSP,2013-01-24 00:38:00,
2013-01-23 16:53:00,50.4,24.2,30.08,SSE,157,2.2,2.2,36,0.00,,,0.00,WUHU21623XXSP,2013-01-24 00:53:00,
2013-01-23 16:58:00,50.2,24.0,30.08,SSE,157,1.6,2.2,36,0.00,,,0.00,WUHU21623XXSP,2013-01-24 00:58:00,
2013-01-23 17:03:00,49.8,23.7,30.08,South,180,2.0,2.0,36,0.00,,,0.00,WUHU21623XXSP,2013-01-24 01:03:00,
2013-01-23 17:10:00,49.1,23.8,30.08,SSE,157,0.0,2.0,37,0.00,,,0.00,WUHU21623XXSP,2013-01-24 01:10:00,
2013-01-23 17:19:00,48.4,23.8,30.08,East,90,0.0,0.0,38,0.00,,,0.00,WUHU21623XXSP,2013-01-24 01:19:00,
2013-01-23 17:24:00,48.0,23.5,30.08,NE,45,0.0,0.0,38,0.00,,,0.00,WUHU21623XXSP,2013-01-24 01:24:00,
2013-01-23 17:29:00,47.7,23.8,30.08,NE,45,0.0,0.0,39,0.00,,,0.00,WUHU21623XXSP,2013-01-24 01:29:00,
2013-01-23 17:34:00,47.1,23.5,30.08,NE,45,0.0,0.0,39,0.00,,,0.00,WUHU21623XXSP,2013-01-24 01:34:00,
2013-01-23 17:42:00,46.6,22.9,30.08,SE,135,0.0,0.0,39,0.00,,,0.00,WUHU21623XXSP,2013-01-24 01:42:00,
2013-01-23 17:47:00,46.2,23.2,30.08,NE,45,0.0,0.0,40,0.00,,,0.00,WUHU21623XXSP,2013-01-24 01:47:00,
2013-01-23 17:53:00,45.7,22.7,30.08,East,90,0.0,0.0,40,0.00,,,0.00,WUHU21623XXSP,2013-01-24 01:53:00,
2013-01-23 17:58:00,45.5,22.5,30.07,ESE,112,0.0,0.0,40,0.00,,,0.00,WUHU21623XXSP,2013-01-24 01:58:00,
2013-01-23 18:08:00,44.8,22.6,30.07,ESE,112,0.0,0.0,41,0.00,,,0.00,WUHU21623XXSP,2013-01-24 02:08:00,
2013-01-23 18:29:00,43.7,22.0,30.09,SE,135,0.0,0.0,42,0.00,,,0.00,WUHU21623XXSP,2013-01-24 02:29:00,
2013-01-23 18:34:00,43.5,22.4,30.09,NE,45,0.0,0.0,43,0.00,,,0.00,WUHU21623XXSP,2013-01-24 02:34:00,
2013-01-23 18:40:00,43.3,22.2,30.09,NE,45,0.0,0.0,43,0.00,,,0.00,WUHU21623XXSP,2013-01-24 02:40:00,
2013-01-23 18:47:00,43.2,22.1,30.09,SE,135,0.0,0.0,43,0.00,,,0.00,WUHU21623XXSP,2013-01-24 02:47:00,
2013-01-23 18:57:00,42.8,22.3,30.10,ESE,112,0.0,0.0,44,0.00,,,0.00,WUHU21623XXSP,2013-01-24 02:57:00,
2013-01-23 19:10:00,42.6,22.1,30.10,ENE,67,0.0,0.0,45,0.00,,,0.00,WUHU21623XXSP,2013-01-24 03:10:00,
2013-01-23 19:23:00,43.3,23.1,30.10,ENE,67,0.0,0.0,45,0.00,,,0.00,WUHU21623XXSP,2013-01-24 03:23:00,
2013-01-23 19:28:00,43.3,23.3,30.10,ENE,67,0.0,0.0,45,0.00,,,0.00,WUHU21623XXSP,2013-01-24 03:28:00,
2013-01-23 19:33:00,43.3,23.3,30.10,NE,45,0.0,0.0,45,0.00,,,0.00,WUHU21623XXSP,2013-01-24 03:33:00,
2013-01-23 19:40:00,43.5,23.5,30.10,ENE,67,0.0,0.0,45,0.00,,,0.00,WUHU21623XXSP,2013-01-24 03:40:00,
2013-01-23 19:49:00,43.3,23.8,30.11,ESE,112,0.0,0.0,46,0.00,,,0.00,WUHU21623XXSP,2013-01-24 03:49:00,
2013-01-23 20:16:00,43.0,23.5,30.11,ESE,112,0.0,0.0,46,0.00,,,0.00,WUHU21623XXSP,2013-01-24 04:16:00,
2013-01-23 20:21:00,43.0,23.5,30.11,East,90,0.0,0.0,47,0.00,,,0.00,WUHU21623XXSP,2013-01-24 04:21:00,
2013-01-23 20:26:00,42.8,24.1,30.11,ENE,67,0.0,0.0,47,0.00,,,0.00,WUHU21623XXSP,2013-01-24 04:26:00,
2013-01-23 20:31:00,42.6,23.7,30.11,NE,45,1.8,1.8,47,0.00,,,0.00,WUHU21623XXSP,2013-01-24 04:31:00,
2013-01-23 20:46:00,42.6,23.7,30.11,SE,135,0.0,0.0,48,0.00,,,0.00,WUHU21623XXSP,2013-01-24 04:46:00,
2013-01-23 20:53:00,42.4,24.1,30.12,ENE,67,0.0,0.0,48,0.00,,,0.00,WUHU21623XXSP,2013-01-24 04:53:00,
2013-01-23 20:58:00,42.4,24.1,30.12,ENE,67,0.0,0.0,48,0.00,,,0.00,WUHU21623XXSP,2013-01-24 04:58:00,
2013-01-23 21:00:00,42.4,24.1,30.12,ENE,67,0.0,0.0,48,0.00,,,0.00,WUHU21623XXSP,2013-01-24 05:00:00,
2013-01-23 21:03:00,42.4,24.6,30.11,East,90,0.0,0.0,49,0.00,,,0.00,WUHU21623XXSP,2013-01-24 05:03:00,
2013-01-23 21:12:00,42.4,25.2,30.11,East,90,0.0,0.0,50,0.00,,,0.00,WUHU21623XXSP,2013-01-24 05:12:00,
2013-01-23 21:27:00,42.6,25.3,30.11,NE,45,0.0,0.0,50,0.00,,,0.00,WUHU21623XXSP,2013-01-24 05:27:00,
2013-01-23 21:33:00,42.6,25.8,30.11,ESE,112,0.0,0.0,51,0.00,,,0.00,WUHU21623XXSP,2013-01-24 05:33:00,
2013-01-23 21:42:00,43.0,26.1,30.11,SSE,157,0.0,0.0,51,0.00,,,0.00,WUHU21623XXSP,2013-01-24 05:42:00,
2013-01-23 21:48:00,43.0,26.1,30.11,ESE,112,0.0,0.0,51,0.00,,,0.00,WUHU21623XXSP,2013-01-24 05:48:00,
2013-01-23 21:57:00,43.0,26.5,30.11,ESE,112,0.0,0.0,52,0.00,,,0.00,WUHU21623XXSP,2013-01-24 05:57:00,
2013-01-23 22:02:00,43.2,26.7,30.11,SSE,157,0.0,0.0,52,0.00,,,0.00,WUHU21623XXSP,2013-01-24 06:02:00,
2013-01-23 22:08:00,43.2,26.7,30.11,SE,135,0.0,0.0,52,0.00,,,0.00,WUHU21623XXSP,2013-01-24 06:08:00,
2013-01-23 22:14:00,43.0,26.5,30.11,ESE,112,0.0,0.0,52,0.00,,,0.00,WUHU21623XXSP,2013-01-24 06:14:00,
2013-01-23 22:25:00,43.0,26.5,30.12,South,180,0.0,0.0,52,0.00,,,0.00,WUHU21623XXSP,2013-01-24 06:25:00,
2013-01-23 22:30:00,43.0,26.5,30.12,ESE,112,0.0,0.0,52,0.00,,,0.00,WUHU21623XXSP,2013-01-24 06:30:00,
2013-01-23 22:35:00,43.0,26.5,30.12,WNW,292,0.0,0.0,52,0.00,,,0.00,WUHU21623XXSP,2013-01-24 06:35:00,
2013-01-23 22:40:00,43.0,26.5,30.12,NW,315,0.0,0.0,52,0.00,,,0.00,WUHU21623XXSP,2013-01-24 06:40:00,
2013-01-23 22:45:00,43.0,26.5,30.12,North,0,0.0,0.0,52,0.00,,,0.00,WUHU21623XXSP,2013-01-24 06:45:00,
2013-01-23 22:57:00,42.4,26.5,30.12,WNW,292,0.0,0.0,53,0.00,,,0.00,WUHU21623XXSP,2013-01-24 06:57:00,
2013-01-23 23:02:00,42.4,26.5,30.12,WNW,292,0.0,0.0,53,0.00,,,0.00,WUHU21623XXSP,2013-01-24 07:02:00,
2013-01-23 23:10:00,42.1,26.1,30.12,West,270,0.7,0.7,53,0.00,,,0.00,WUHU21623XXSP,2013-01-24 07:10:00,
2013-01-23 23:29:00,41.4,25.9,30.12,WNW,292,1.1,1.1,54,0.00,,,0.00,WUHU21623XXSP,2013-01-24 07:29:00,
2013-01-23 23:36:00,41.2,25.7,30.12,NNW,337,0.0,1.1,54,0.00,,,0.00,WUHU21623XXSP,2013-01-24 07:36:00,
2013-01-23 23:46:00,41.0,26.0,30.12,WNW,292,1.6,1.6,55,0.00,,,0.00,WUHU21623XXSP,2013-01-24 07:46:00,
2013-01-23 23:52:00,40.8,25.8,30.12,NW,315,2.5,2.5,55,0.00,,,0.00,WUHU21623XXSP,2013-01-24 07:52:00,
2013-01-23 23:57:00,40.6,25.6,30.12,NW,315,2.5,2.5,55,0.00,,,0.00,WUHU21623XXSP,2013-01-24 07:57:00,